GLO1378 SBRD-SBCZ

Flight info

Callsign GLO1378
Flight time N/A
Altitude 38000
Route TORAB DCT KOKLI UM668 VULAK UM775 RCO UN420 EGBAK DCT DOKVA DCT BLOTA
Aircraft B738/M-SDE2E3FGHIRWXY/LB1

Departure

Time 2026-04-23 12:57
Airport Maestro Marinho Franco Airport (SBRD)

Arrival

Time N/A
Airport Cruzeiro do Sul Airport (SBCZ)
Time Latitude Longitude Altitude Speed Heading
2026-04-23 12:36 -16.58758 -54.72266 1456 ft 0 kts 91°
2026-04-23 12:48 -16.58758 -54.72277 1456 ft 2 kts 91°
2026-04-23 12:48 -16.58756 -54.72292 1455 ft 2 kts 115°
2026-04-23 12:48 -16.58747 -54.72305 1455 ft 2 kts 137°
2026-04-23 12:49 -16.58735 -54.72314 1454 ft 2 kts 160°
2026-04-23 12:49 -16.58723 -54.72316 1454 ft 0 kts 178°
2026-04-23 12:49 -16.58716 -54.72316 1454 ft 1 kts 181°
2026-04-23 12:49 -16.58715 -54.72316 1454 ft 0 kts 181°
2026-04-23 12:52 -16.58716 -54.72316 1454 ft 0 kts 181°
2026-04-23 12:52 -16.58736 -54.72317 1454 ft 4 kts 181°
2026-04-23 12:52 -16.58776 -54.72317 1455 ft 6 kts 180°
2026-04-23 12:52 -16.58828 -54.72318 1456 ft 8 kts 185°
2026-04-23 12:53 -16.58859 -54.72374 1455 ft 12 kts 268°
2026-04-23 12:53 -16.58881 -54.72477 1451 ft 16 kts 207°
2026-04-23 12:53 -16.58993 -54.72488 1453 ft 15 kts 180°
2026-04-23 12:53 -16.59098 -54.72488 1455 ft 14 kts 181°
2026-04-23 12:54 -16.59196 -54.72492 1457 ft 13 kts 180°
2026-04-23 12:54 -16.59287 -54.72492 1458 ft 12 kts 180°
2026-04-23 12:54 -16.59370 -54.72484 1461 ft 10 kts 150°
2026-04-23 12:54 -16.59408 -54.72466 1462 ft 3 kts 202°
2026-04-23 12:55 -16.59403 -54.72488 1462 ft 5 kts 332°
2026-04-23 12:55 -16.59366 -54.72493 1460 ft 0 kts 359°
2026-04-23 12:56 -16.59341 -54.72493 1459 ft 23 kts
2026-04-23 12:56 -16.58890 -54.72483 1451 ft 102 kts
2026-04-23 12:56 -16.57950 -54.72472 1446 ft 163 kts
2026-04-23 12:57 -16.56838 -54.72551 2179 ft 153 kts 355°
2026-04-23 12:57 -16.55801 -54.72806 2749 ft 165 kts 345°
2026-04-23 12:57 -16.54733 -54.73329 3295 ft 168 kts 332°
2026-04-23 12:57 -16.53745 -54.73998 3519 ft 182 kts 331°
2026-04-23 12:58 -16.52598 -54.74738 3602 ft 205 kts 330°
2026-04-23 12:58 -16.51385 -54.75596 4054 ft 209 kts 327°
2026-04-23 12:58 -16.50192 -54.76498 4391 ft 223 kts 328°
2026-04-23 12:58 -16.48875 -54.77423 4889 ft 231 kts 329°
2026-04-23 12:59 -16.47515 -54.78379 5418 ft 249 kts 329°
2026-04-23 12:59 -16.45968 -54.79368 5904 ft 265 kts 333°
2026-04-23 12:59 -16.44324 -54.80335 6442 ft 281 kts 332°
2026-04-23 12:59 -16.42659 -54.81392 7229 ft 285 kts 330°
2026-04-23 13:00 -16.40990 -54.82536 8048 ft 288 kts 328°
2026-04-23 13:00 -16.39341 -54.83712 8866 ft 291 kts 328°
2026-04-23 13:00 -16.37681 -54.84910 9682 ft 294 kts 328°
2026-04-23 13:00 -16.35983 -54.86134 10380 ft 300 kts 328°
2026-04-23 13:01 -16.34223 -54.87395 10823 ft 317 kts 328°
2026-04-23 13:01 -16.32351 -54.88732 11252 ft 333 kts 328°
2026-04-23 13:01 -16.30391 -54.90129 11665 ft 349 kts 328°
2026-04-23 13:01 -16.28367 -54.91572 12260 ft 358 kts 327°
2026-04-23 13:02 -16.26302 -54.93047 12924 ft 364 kts 327°
2026-04-23 13:02 -16.24187 -54.94559 13605 ft 370 kts 327°
2026-04-23 13:02 -16.22079 -54.96067 14334 ft 373 kts 327°
2026-04-23 13:02 -16.19934 -54.97601 15058 ft 377 kts 327°
2026-04-23 13:03 -16.17742 -54.99168 15786 ft 381 kts 327°
2026-04-23 13:03 -16.15568 -55.00723 16531 ft 383 kts 326°
2026-04-23 13:03 -16.13353 -55.02306 17218 ft 387 kts 326°
2026-04-23 13:03 -16.11129 -55.03896 17885 ft 391 kts 326°
2026-04-23 13:04 -16.08883 -55.05500 18545 ft 394 kts 326°
2026-04-23 13:04 -16.06615 -55.07119 19209 ft 397 kts 327°
2026-04-23 13:04 -16.04322 -55.08754 19808 ft 400 kts 327°
2026-04-23 13:04 -16.02027 -55.10393 20445 ft 402 kts 326°
2026-04-23 13:05 -15.99877 -55.12263 21005 ft 408 kts 316°
2026-04-23 13:05 -15.98028 -55.14533 21565 ft 413 kts 307°
2026-04-23 13:05 -15.96529 -55.17086 22124 ft 417 kts 299°
2026-04-23 13:05 -15.95306 -55.19819 22655 ft 421 kts 294°
2026-04-23 13:06 -15.93318 -55.25562 23691 ft 429 kts 290°
2026-04-23 13:06 -15.92403 -55.28505 24224 ft 432 kts 289°
2026-04-23 13:06 -15.91479 -55.31513 24703 ft 435 kts 289°
2026-04-23 13:07 -15.90556 -55.34499 25187 ft 439 kts 290°
2026-04-23 13:07 -15.90242 -55.35509 25347 ft 440 kts 290°
2026-04-23 13:07 -15.89221 -55.38763 25861 ft 443 kts 290°
2026-04-23 13:07 -15.88245 -55.41843 26312 ft 447 kts 290°
2026-04-23 13:08 -15.87270 -55.44892 26776 ft 450 kts 290°
2026-04-23 13:08 -15.86267 -55.48007 27229 ft 453 kts 290°
2026-04-23 13:08 -15.85269 -55.51084 27662 ft 456 kts 291°
2026-04-23 13:08 -15.84245 -55.54229 28041 ft 460 kts 291°
2026-04-23 13:09 -15.83216 -55.57382 28496 ft 462 kts 291°
2026-04-23 13:09 -15.82191 -55.60521 28916 ft 464 kts 291°
2026-04-23 13:09 -15.81149 -55.63710 29388 ft 466 kts 291°
2026-04-23 13:09 -15.80107 -55.66896 29799 ft 468 kts 291°
2026-04-23 13:10 -15.79067 -55.70079 30370 ft 466 kts 291°
2026-04-23 13:10 -15.78034 -55.73243 31060 ft 462 kts 291°
2026-04-23 13:10 -15.77011 -55.76379 31681 ft 458 kts 291°
2026-04-23 13:10 -15.75994 -55.79490 32138 ft 458 kts 291°
2026-04-23 13:11 -15.74973 -55.82607 32642 ft 457 kts 291°
2026-04-23 13:11 -15.73959 -55.85701 33172 ft 455 kts 291°
2026-04-23 13:11 -15.72941 -55.88805 33726 ft 453 kts 291°
2026-04-23 13:11 -15.71925 -55.91903 34231 ft 452 kts 291°
2026-04-23 13:12 -15.70918 -55.94973 34740 ft 450 kts 291°
2026-04-23 13:12 -15.69918 -55.98020 35209 ft 448 kts 291°
2026-04-23 13:12 -15.68917 -56.01067 35640 ft 447 kts 291°
2026-04-23 13:12 -15.67905 -56.04144 36041 ft 447 kts 291°
2026-04-23 13:13 -15.66891 -56.07227 36393 ft 447 kts 291°
2026-04-23 13:13 -15.65890 -56.10263 36763 ft 446 kts 291°
2026-04-23 13:13 -15.64789 -56.13260 37102 ft 445 kts 295°
2026-04-23 13:13 -15.63543 -56.16190 37430 ft 444 kts 296°
2026-04-23 13:14 -15.62221 -56.19077 37764 ft 443 kts 297°
2026-04-23 13:14 -15.60871 -56.21948 38009 ft 444 kts 298°
2026-04-23 13:14 -15.59503 -56.24836 38007 ft 447 kts 297°
2026-04-23 13:15 -15.56802 -56.30586 38010 ft 443 kts 297°
2026-04-23 13:15 -15.54139 -56.36326 38012 ft 443 kts 297°
2026-04-23 13:16 -15.51484 -56.42090 38014 ft 444 kts 297°
2026-04-23 13:16 -15.48846 -56.47841 38015 ft 444 kts 297°
2026-04-23 13:17 -15.46186 -56.53644 38019 ft 445 kts 297°
2026-04-23 13:17 -15.43547 -56.59402 38021 ft 445 kts 297°
2026-04-23 13:18 -15.40896 -56.65180 38021 ft 444 kts 297°
2026-04-23 13:18 -15.38245 -56.70953 38023 ft 444 kts 297°
2026-04-23 13:19 -15.35596 -56.76718 38024 ft 444 kts 297°
2026-04-23 13:19 -15.32946 -56.82480 38024 ft 445 kts 297°
2026-04-23 13:20 -15.30284 -56.88262 38023 ft 445 kts 297°
2026-04-23 13:20 -15.27619 -56.94046 38022 ft 446 kts 297°
2026-04-23 13:21 -15.24964 -56.99806 38015 ft 445 kts 297°
2026-04-23 13:21 -15.22286 -57.05609 38012 ft 444 kts 297°
2026-04-23 13:22 -15.19627 -57.11369 38011 ft 445 kts 297°
2026-04-23 13:22 -15.16963 -57.17133 38010 ft 446 kts 297°
2026-04-23 13:23 -15.14290 -57.22913 38009 ft 446 kts 297°
2026-04-23 13:23 -15.11613 -57.28698 38013 ft 446 kts 297°
2026-04-23 13:24 -15.08944 -57.34457 38017 ft 446 kts 297°
2026-04-23 13:24 -15.06272 -57.40222 38020 ft 446 kts 297°
2026-04-23 13:25 -15.03598 -57.45985 38025 ft 446 kts 297°
2026-04-23 13:25 -15.00904 -57.51786 38027 ft 447 kts 297°
2026-04-23 13:26 -14.98216 -57.57567 38030 ft 447 kts 297°
2026-04-23 13:26 -14.95532 -57.63339 38030 ft 447 kts 297°
2026-04-23 13:27 -14.92848 -57.69108 38031 ft 446 kts 297°
2026-04-23 13:27 -14.90147 -57.74911 38033 ft 446 kts 297°
2026-04-23 13:28 -14.87456 -57.80688 38036 ft 447 kts 298°
2026-04-23 13:28 -14.84772 -57.86443 38038 ft 447 kts 298°
2026-04-23 13:29 -14.82070 -57.92233 38048 ft 447 kts 298°
2026-04-23 13:29 -14.79368 -57.98018 38054 ft 449 kts 298°
2026-04-23 13:30 -14.76668 -58.03793 38065 ft 448 kts 297°
2026-04-23 13:30 -14.73951 -58.09601 38071 ft 446 kts 297°
2026-04-23 13:31 -14.71251 -58.15369 38076 ft 448 kts 298°
2026-04-23 13:31 -14.68550 -58.21133 38080 ft 447 kts 298°
2026-04-23 13:32 -14.65837 -58.26918 38084 ft 448 kts 298°
2026-04-23 13:32 -14.63122 -58.32701 38090 ft 449 kts 298°
2026-04-23 13:33 -14.60407 -58.38482 38094 ft 448 kts 298°
2026-04-23 13:33 -14.57704 -58.44234 38099 ft 447 kts 298°
2026-04-23 13:34 -14.54970 -58.50042 38103 ft 448 kts 298°
2026-04-23 13:34 -14.52252 -58.55812 38108 ft 449 kts 298°
2026-04-23 13:35 -14.49540 -58.61565 38113 ft 448 kts 298°
2026-04-23 13:35 -14.46804 -58.67367 38115 ft 448 kts 298°
2026-04-23 13:36 -14.44095 -58.73107 38117 ft 448 kts 298°
2026-04-23 13:36 -14.41363 -58.78890 38115 ft 448 kts 298°
2026-04-23 13:37 -14.38646 -58.84638 38113 ft 448 kts 298°
2026-04-23 13:37 -14.35907 -58.90427 38112 ft 449 kts 298°
2026-04-23 13:38 -14.33166 -58.96220 38111 ft 448 kts 298°
2026-04-23 13:38 -14.30436 -59.01984 38110 ft 448 kts 298°
2026-04-23 13:39 -14.27703 -59.07747 38110 ft 448 kts 298°
2026-04-23 13:39 -14.24978 -59.13487 38110 ft 449 kts 298°
2026-04-23 13:40 -14.22226 -59.19281 38109 ft 449 kts 298°
2026-04-23 13:40 -14.19484 -59.25050 38109 ft 449 kts 298°
2026-04-23 13:41 -14.16755 -59.30787 38105 ft 449 kts 298°
2026-04-23 13:41 -14.14000 -59.36576 38100 ft 448 kts 298°
2026-04-23 13:42 -14.11259 -59.42331 38096 ft 449 kts 298°
2026-04-23 13:42 -14.08514 -59.48087 38091 ft 450 kts 298°
2026-04-23 13:43 -14.05753 -59.53873 38084 ft 450 kts 298°
2026-04-23 13:43 -14.02995 -59.59653 38073 ft 450 kts 298°
2026-04-23 13:44 -14.00246 -59.65407 38061 ft 449 kts 298°
2026-04-23 13:44 -13.97498 -59.71155 38053 ft 449 kts 298°
2026-04-23 13:45 -13.95192 -59.75975 38051 ft 449 kts 298°
2026-04-23 13:45 -13.91983 -59.82677 38050 ft 450 kts 298°
2026-04-23 13:46 -13.89209 -59.88466 38049 ft 451 kts 298°
2026-04-23 13:46 -13.86450 -59.94220 38048 ft 448 kts 298°
2026-04-23 13:47 -13.83687 -59.99979 38049 ft 449 kts 298°
2026-04-23 13:47 -13.80924 -60.05732 38047 ft 450 kts 298°
2026-04-23 13:48 -13.78158 -60.11488 38044 ft 449 kts 298°
2026-04-23 13:48 -13.75400 -60.17222 38039 ft 450 kts 298°
2026-04-23 13:49 -13.72613 -60.23011 38032 ft 449 kts 298°
2026-04-23 13:49 -13.69862 -60.28726 38027 ft 449 kts 298°
2026-04-23 13:50 -13.67081 -60.34493 38025 ft 449 kts 298°
2026-04-23 13:50 -13.64329 -60.40197 38023 ft 449 kts 298°
2026-04-23 13:51 -13.61553 -60.45946 38021 ft 449 kts 298°
2026-04-23 13:51 -13.58774 -60.51697 38019 ft 449 kts 298°
2026-04-23 13:52 -13.56007 -60.57418 38021 ft 450 kts 298°
2026-04-23 13:52 -13.53228 -60.63163 38021 ft 449 kts 298°
2026-04-23 13:53 -13.50459 -60.68881 38020 ft 448 kts 298°
2026-04-23 13:53 -13.47675 -60.74625 38020 ft 449 kts 298°
2026-04-23 13:54 -13.44901 -60.80345 38021 ft 449 kts 298°
2026-04-23 13:54 -13.42113 -60.86092 38021 ft 450 kts 298°
2026-04-23 13:55 -13.39338 -60.91808 38020 ft 448 kts 298°
2026-04-23 13:55 -13.36544 -60.97559 38020 ft 448 kts 298°
2026-04-23 13:56 -13.33770 -61.03264 38019 ft 449 kts 298°
2026-04-23 13:56 -13.30991 -61.08975 38019 ft 449 kts 298°
2026-04-23 13:57 -13.28189 -61.14728 38017 ft 449 kts 298°
2026-04-23 13:57 -13.25407 -61.20438 38015 ft 449 kts 298°
2026-04-23 13:58 -13.22620 -61.26154 38015 ft 449 kts 298°
2026-04-23 13:58 -13.19822 -61.31887 38012 ft 449 kts 298°
2026-04-23 13:59 -13.17031 -61.37603 38013 ft 450 kts 298°
2026-04-23 13:59 -13.14232 -61.43333 38010 ft 449 kts 298°
2026-04-23 14:00 -13.11899 -61.48104 38010 ft 449 kts 298°
2026-04-23 14:00 -13.08634 -61.54779 38006 ft 449 kts 298°
2026-04-23 14:01 -13.05851 -61.60462 38007 ft 449 kts 298°
2026-04-23 14:01 -13.03040 -61.66198 38005 ft 450 kts 299°
2026-04-23 14:02 -13.00227 -61.71936 38001 ft 450 kts 299°
2026-04-23 14:02 -12.97425 -61.77655 38001 ft 449 kts 299°
2026-04-23 14:03 -12.94632 -61.83351 37999 ft 449 kts 299°
2026-04-23 14:03 -12.91842 -61.89039 38000 ft 449 kts 299°
2026-04-23 14:04 -12.89030 -61.94766 37995 ft 449 kts 299°
2026-04-23 14:04 -12.86235 -62.00458 37996 ft 450 kts 299°
2026-04-23 14:05 -12.83406 -62.06212 37997 ft 450 kts 299°
2026-04-23 14:05 -12.80597 -62.11925 37997 ft 449 kts 299°
2026-04-23 14:06 -12.77790 -62.17629 37997 ft 449 kts 299°
2026-04-23 14:06 -12.74989 -62.23317 37999 ft 448 kts 299°
2026-04-23 14:07 -12.72189 -62.28999 37999 ft 449 kts 299°
2026-04-23 14:07 -12.67973 -62.37541 38004 ft 448 kts 299°
2026-04-23 14:08 -12.65172 -62.43213 38009 ft 447 kts 299°
2026-04-23 14:08 -12.62370 -62.48885 38011 ft 447 kts 299°
2026-04-23 14:09 -12.59557 -62.54572 38011 ft 447 kts 299°
2026-04-23 14:09 -12.56755 -62.60235 38008 ft 446 kts 300°
2026-04-23 14:10 -12.53967 -62.65866 38004 ft 446 kts 300°
2026-04-23 14:10 -12.51176 -62.71497 38001 ft 443 kts 300°
2026-04-23 14:11 -12.48379 -62.77130 37995 ft 444 kts 300°
2026-04-23 14:11 -12.45594 -62.82734 37995 ft 443 kts 300°
2026-04-23 14:12 -12.42805 -62.88339 37992 ft 443 kts 300°
2026-04-23 14:12 -12.40024 -62.93928 37991 ft 442 kts 300°
2026-04-23 14:13 -12.37245 -62.99505 37992 ft 441 kts 300°
2026-04-23 14:13 -12.34463 -63.05092 37990 ft 440 kts 300°
2026-04-23 14:14 -12.31696 -63.10641 37987 ft 442 kts 300°
2026-04-23 14:14 -12.28895 -63.16251 37991 ft 441 kts 299°
2026-04-23 14:15 -12.26108 -63.21835 37989 ft 443 kts 299°
2026-04-23 14:15 -12.23326 -63.27404 37987 ft 443 kts 300°
2026-04-23 14:16 -12.20516 -63.33028 37990 ft 442 kts 299°
2026-04-23 14:16 -12.17740 -63.38584 37991 ft 442 kts 299°
2026-04-23 14:17 -12.14924 -63.44207 37995 ft 443 kts 299°
2026-04-23 14:17 -12.12132 -63.49784 38001 ft 444 kts 299°
2026-04-23 14:18 -12.09323 -63.55392 38007 ft 442 kts 299°
2026-04-23 14:18 -12.06515 -63.60990 38014 ft 444 kts 299°
2026-04-23 14:19 -12.03708 -63.66585 38010 ft 444 kts 299°
2026-04-23 14:19 -12.00895 -63.72189 38010 ft 446 kts 299°
2026-04-23 14:20 -11.98062 -63.77831 38011 ft 446 kts 299°
2026-04-23 14:20 -11.95246 -63.83431 38011 ft 446 kts 299°
2026-04-23 14:21 -11.92423 -63.89045 38015 ft 445 kts 298°
2026-04-23 14:21 -11.89599 -63.94657 38013 ft 446 kts 298°
2026-04-23 14:22 -11.86753 -64.00323 38009 ft 448 kts 298°
2026-04-23 14:22 -11.83914 -64.05973 38015 ft 448 kts 298°
2026-04-23 14:23 -11.81073 -64.11622 38018 ft 447 kts 298°
2026-04-23 14:23 -11.78247 -64.17236 38021 ft 447 kts 298°
2026-04-23 14:24 -11.75408 -64.22872 38024 ft 447 kts 298°
2026-04-23 14:24 -11.72565 -64.28516 38028 ft 447 kts 298°
2026-04-23 14:25 -11.69738 -64.34122 38021 ft 447 kts 298°
2026-04-23 14:25 -11.66878 -64.39791 38021 ft 447 kts 298°
2026-04-23 14:26 -11.64048 -64.45397 38018 ft 446 kts 298°
2026-04-23 14:26 -11.61218 -64.50998 38016 ft 446 kts 299°
2026-04-23 14:27 -11.58378 -64.56619 38012 ft 445 kts 298°
2026-04-23 14:27 -11.55535 -64.62244 38015 ft 446 kts 299°
2026-04-23 14:28 -11.52705 -64.67834 38014 ft 446 kts 299°
2026-04-23 14:28 -11.49855 -64.73460 38013 ft 447 kts 299°
2026-04-23 14:29 -11.47014 -64.79069 38014 ft 446 kts 299°
2026-04-23 14:29 -11.44179 -64.84660 38014 ft 445 kts 299°
2026-04-23 14:30 -11.41331 -64.90273 38012 ft 445 kts 299°
2026-04-23 14:30 -11.38489 -64.95872 38010 ft 446 kts 299°
2026-04-23 14:31 -11.35639 -65.01488 38004 ft 445 kts 299°
2026-04-23 14:31 -11.32807 -65.07065 38001 ft 446 kts 299°
2026-04-23 14:32 -11.29955 -65.12673 38001 ft 447 kts 299°
2026-04-23 14:32 -11.27102 -65.18283 38000 ft 445 kts 299°
2026-04-23 14:33 -11.24257 -65.23876 37999 ft 448 kts 299°
2026-04-23 14:33 -11.21399 -65.29488 37999 ft 447 kts 299°
2026-04-23 14:34 -11.18539 -65.35096 38004 ft 448 kts 300°
2026-04-23 14:34 -11.15669 -65.40723 38001 ft 447 kts 300°
2026-04-23 14:35 -11.12816 -65.46308 38000 ft 447 kts 300°
2026-04-23 14:35 -11.09939 -65.51938 37998 ft 448 kts 299°
2026-04-23 14:36 -11.07054 -65.57584 37998 ft 449 kts 300°
2026-04-23 14:36 -11.04192 -65.63182 37997 ft 449 kts 300°
2026-04-23 14:37 -11.01315 -65.68805 37996 ft 448 kts 300°
2026-04-23 14:37 -10.98427 -65.74448 37997 ft 448 kts 300°
2026-04-23 14:38 -10.95546 -65.80074 37995 ft 449 kts 300°
2026-04-23 14:38 -10.92662 -65.85699 37993 ft 449 kts 300°
2026-04-23 14:39 -10.89784 -65.91314 37992 ft 449 kts 300°
2026-04-23 14:39 -10.86908 -65.96919 37991 ft 449 kts 300°
2026-04-23 14:40 -10.84008 -66.02570 37992 ft 449 kts 300°
2026-04-23 14:40 -10.81138 -66.08161 37992 ft 448 kts 300°
2026-04-23 14:41 -10.78256 -66.13767 37994 ft 449 kts 300°
2026-04-23 14:41 -10.75364 -66.19388 37996 ft 449 kts 300°
2026-04-23 14:42 -10.72482 -66.24989 38000 ft 448 kts 300°
2026-04-23 14:42 -10.69582 -66.30624 37998 ft 449 kts 300°
2026-04-23 14:43 -10.66706 -66.36209 37999 ft 447 kts 300°
2026-04-23 14:43 -10.63819 -66.41811 37998 ft 448 kts 300°
2026-04-23 14:44 -10.60927 -66.47421 37997 ft 447 kts 300°
2026-04-23 14:44 -10.58058 -66.52984 37998 ft 448 kts 300°
2026-04-23 14:45 -10.55163 -66.58591 37996 ft 448 kts 300°
2026-04-23 14:45 -10.52281 -66.64173 37996 ft 447 kts 300°
2026-04-23 14:46 -10.49398 -66.69754 37994 ft 447 kts 301°
2026-04-23 14:46 -10.46499 -66.75363 37993 ft 447 kts 301°
2026-04-23 14:47 -10.43622 -66.80925 37992 ft 447 kts 301°
2026-04-23 14:47 -10.40732 -66.86507 37990 ft 447 kts 301°
2026-04-23 14:48 -10.37846 -66.92079 37990 ft 447 kts 301°
2026-04-23 14:48 -10.34937 -66.97694 37990 ft 447 kts 301°
2026-04-23 14:49 -10.32059 -67.03243 37990 ft 447 kts 301°
2026-04-23 14:49 -10.29171 -67.08816 37991 ft 448 kts 301°
2026-04-23 14:50 -10.26290 -67.14427 37991 ft 448 kts 300°
2026-04-23 14:50 -10.23429 -67.20074 37995 ft 449 kts 300°
2026-04-23 14:51 -10.20580 -67.25707 37999 ft 449 kts 300°
2026-04-23 14:51 -10.17729 -67.31336 38004 ft 449 kts 300°
2026-04-23 14:52 -10.14873 -67.36961 38013 ft 451 kts 300°
2026-04-23 14:52 -10.12004 -67.42603 38018 ft 450 kts 300°
2026-04-23 14:53 -10.09131 -67.48251 38017 ft 451 kts 300°
2026-04-23 14:53 -10.06256 -67.53894 38019 ft 451 kts 300°
2026-04-23 14:54 -10.03379 -67.59540 38022 ft 452 kts 300°
2026-04-23 14:54 -10.00505 -67.65177 38020 ft 451 kts 300°
2026-04-23 14:55 -9.97618 -67.70842 38022 ft 452 kts 300°
2026-04-23 14:55 -9.94730 -67.76499 38021 ft 453 kts 300°
2026-04-23 14:56 -9.91850 -67.82139 38023 ft 452 kts 300°
2026-04-23 14:56 -9.88911 -67.87785 38024 ft 452 kts 302°
2026-04-23 14:57 -9.85207 -67.92832 38028 ft 447 kts 317°
2026-04-23 14:57 -9.80612 -67.97083 38026 ft 446 kts 323°
2026-04-23 14:58 -9.75866 -68.01125 38024 ft 444 kts 323°
2026-04-23 14:58 -9.71147 -68.05152 38025 ft 446 kts 323°
2026-04-23 14:59 -9.66423 -68.09235 38024 ft 447 kts 322°
2026-04-23 14:59 -9.61712 -68.13349 38023 ft 446 kts 322°
2026-04-23 15:00 -9.57025 -68.17465 38019 ft 446 kts 322°
2026-04-23 15:00 -9.52312 -68.21611 38014 ft 446 kts 322°
2026-04-23 15:01 -9.47644 -68.25719 38011 ft 447 kts 322°
2026-04-23 15:01 -9.42947 -68.29852 38013 ft 447 kts 322°
2026-04-23 15:02 -9.38453 -68.34216 38007 ft 451 kts 311°
2026-04-23 15:02 -9.35271 -68.39727 38014 ft 457 kts 296°
2026-04-23 15:03 -9.32820 -68.45648 38016 ft 458 kts 293°
2026-04-23 15:03 -9.30508 -68.51643 38023 ft 457 kts 293°
2026-04-23 15:04 -9.28180 -68.57632 38019 ft 457 kts 293°
2026-04-23 15:04 -9.25841 -68.63560 38018 ft 457 kts 293°
2026-04-23 15:05 -9.23463 -68.69531 38016 ft 456 kts 294°
2026-04-23 15:05 -9.21087 -68.75465 38014 ft 456 kts 294°
2026-04-23 15:06 -9.18694 -68.81427 38014 ft 457 kts 293°
2026-04-23 15:06 -9.16301 -68.87382 38013 ft 457 kts 293°
2026-04-23 15:07 -9.13913 -68.93315 38005 ft 458 kts 294°
2026-04-23 15:07 -9.11508 -68.99290 38001 ft 458 kts 294°
2026-04-23 15:08 -9.09125 -69.05204 38000 ft 458 kts 294°
2026-04-23 15:09 -9.05515 -69.14159 37997 ft 458 kts 293°
2026-04-23 15:09 -9.03112 -69.20116 37998 ft 457 kts 293°
2026-04-23 15:10 -9.01124 -69.25049 37998 ft 459 kts 293°
2026-04-23 15:10 -8.98301 -69.32054 37998 ft 460 kts 294°
2026-04-23 15:11 -8.95888 -69.38035 38000 ft 461 kts 294°
2026-04-23 15:11 -8.93469 -69.44022 38000 ft 460 kts 294°
2026-04-23 15:12 -8.91047 -69.50011 38001 ft 461 kts 294°
2026-04-23 15:12 -8.88634 -69.55978 38002 ft 459 kts 294°
2026-04-23 15:13 -8.86225 -69.61932 38006 ft 461 kts 294°
2026-04-23 15:13 -8.83795 -69.67932 38007 ft 461 kts 294°
2026-04-23 15:14 -8.81358 -69.73948 37997 ft 461 kts 294°
2026-04-23 15:14 -8.78944 -69.79902 37989 ft 461 kts 294°
2026-04-23 15:15 -8.76512 -69.85899 37990 ft 460 kts 294°
2026-04-23 15:15 -8.74091 -69.91867 37992 ft 459 kts 294°
2026-04-23 15:16 -8.71666 -69.97840 37992 ft 460 kts 294°
2026-04-23 15:16 -8.69245 -70.03798 37994 ft 461 kts 294°
2026-04-23 15:17 -8.66815 -70.09780 37993 ft 460 kts 294°
2026-04-23 15:17 -8.64390 -70.15747 37993 ft 460 kts 294°
2026-04-23 15:18 -8.61968 -70.21697 37993 ft 459 kts 294°
2026-04-23 15:18 -8.59530 -70.27685 37995 ft 459 kts 295°
2026-04-23 15:19 -8.57123 -70.33598 37996 ft 459 kts 295°
2026-04-23 15:19 -8.54856 -70.39601 37995 ft 459 kts 291°
2026-04-23 15:20 -8.53188 -70.44738 37996 ft 460 kts 289°
2026-04-23 15:20 -8.50933 -70.51906 37995 ft 459 kts 289°
2026-04-23 15:21 -8.48976 -70.58025 37996 ft 459 kts 290°
2026-04-23 15:21 -8.46990 -70.64139 37995 ft 460 kts 290°
2026-04-23 15:22 -8.44990 -70.70241 37995 ft 459 kts 290°
2026-04-23 15:22 -8.42977 -70.76369 37995 ft 459 kts 290°
2026-04-23 15:23 -8.40973 -70.82458 37996 ft 459 kts 290°
2026-04-23 15:23 -8.38964 -70.88557 37995 ft 457 kts 290°
2026-04-23 15:24 -8.36965 -70.94624 37997 ft 459 kts 290°
2026-04-23 15:24 -8.34958 -71.00713 37997 ft 459 kts 290°
2026-04-23 15:25 -8.32937 -71.06840 37997 ft 459 kts 290°
2026-04-23 15:25 -8.30934 -71.12911 37946 ft 457 kts 290°
2026-04-23 15:25 -8.29929 -71.15951 37593 ft 453 kts 291°
2026-04-23 15:26 -8.28940 -71.18948 37117 ft 449 kts 290°
2026-04-23 15:26 -8.27962 -71.21906 36582 ft 446 kts 290°
2026-04-23 15:26 -8.26984 -71.24866 35971 ft 445 kts 290°
2026-04-23 15:26 -8.26012 -71.27805 35464 ft 441 kts 290°
2026-04-23 15:27 -8.25044 -71.30735 34992 ft 437 kts 290°
2026-04-23 15:27 -8.24092 -71.33616 34506 ft 434 kts 290°
2026-04-23 15:27 -8.23138 -71.36502 34020 ft 430 kts 290°
2026-04-23 15:27 -8.22201 -71.39335 33554 ft 426 kts 290°
2026-04-23 15:28 -8.21270 -71.42152 33074 ft 423 kts 290°
2026-04-23 15:28 -8.20344 -71.44953 32618 ft 420 kts 290°
2026-04-23 15:28 -8.19432 -71.47708 32155 ft 417 kts 290°
2026-04-23 15:28 -8.18508 -71.50500 31678 ft 415 kts 290°
2026-04-23 15:29 -8.17607 -71.53214 31199 ft 413 kts 290°
2026-04-23 15:29 -8.16694 -71.55965 30715 ft 411 kts 290°
2026-04-23 15:29 -8.15785 -71.58706 30251 ft 409 kts 290°
2026-04-23 15:29 -8.14894 -71.61391 29782 ft 407 kts 290°
2026-04-23 15:30 -8.13998 -71.64080 29270 ft 406 kts 290°
2026-04-23 15:30 -8.13092 -71.66777 28801 ft 404 kts 291°
2026-04-23 15:30 -8.12191 -71.69450 28345 ft 401 kts 291°
2026-04-23 15:30 -8.11298 -71.72087 27886 ft 399 kts 290°
2026-04-23 15:31 -8.10403 -71.74726 27419 ft 397 kts 290°
2026-04-23 15:31 -8.09508 -71.77370 26958 ft 395 kts 290°
2026-04-23 15:31 -8.08631 -71.79961 26499 ft 393 kts 290°
2026-04-23 15:31 -8.07755 -71.82551 26043 ft 391 kts 290°
2026-04-23 15:32 -8.06877 -71.85147 25586 ft 389 kts 290°
2026-04-23 15:32 -8.06011 -71.87709 25131 ft 387 kts 290°
2026-04-23 15:32 -8.05141 -71.90279 24676 ft 385 kts 290°
2026-04-23 15:32 -8.04284 -71.92808 24223 ft 383 kts 290°
2026-04-23 15:33 -8.03424 -71.95348 23764 ft 381 kts 290°
2026-04-23 15:33 -8.02575 -71.97855 23321 ft 379 kts 290°
2026-04-23 15:33 -8.01724 -72.00369 22879 ft 377 kts 290°
2026-04-23 15:33 -8.00879 -72.02858 22435 ft 375 kts 290°
2026-04-23 15:34 -8.00038 -72.05332 21995 ft 373 kts 289°
2026-04-23 15:34 -7.99206 -72.07783 21559 ft 372 kts 289°
2026-04-23 15:34 -7.98376 -72.10235 21121 ft 370 kts 289°
2026-04-23 15:34 -7.97541 -72.12697 20676 ft 368 kts 289°
2026-04-23 15:35 -7.96714 -72.15131 20233 ft 366 kts 289°
2026-04-23 15:35 -7.95900 -72.17531 19801 ft 365 kts 289°
2026-04-23 15:35 -7.95074 -72.19961 19364 ft 363 kts 289°
2026-04-23 15:35 -7.94263 -72.22348 18928 ft 361 kts 289°
2026-04-23 15:36 -7.93457 -72.24721 18507 ft 359 kts 289°
2026-04-23 15:36 -7.92654 -72.27093 18071 ft 356 kts 289°
2026-04-23 15:36 -7.91856 -72.29450 17650 ft 354 kts 289°
2026-04-23 15:36 -7.91066 -72.31782 17227 ft 352 kts 289°
2026-04-23 15:37 -7.90279 -72.34100 16803 ft 350 kts 289°
2026-04-23 15:37 -7.89490 -72.36433 16384 ft 348 kts 289°
2026-04-23 15:37 -7.88980 -72.37940 16106 ft 347 kts 289°
2026-04-23 15:37 -7.87939 -72.41018 15545 ft 344 kts 290°
2026-04-23 15:38 -7.87172 -72.43275 15132 ft 342 kts 290°
2026-04-23 15:38 -7.86411 -72.45507 14724 ft 336 kts 290°
2026-04-23 15:38 -7.85657 -72.47723 14312 ft 330 kts 289°
2026-04-23 15:38 -7.84928 -72.49877 13912 ft 324 kts 290°
2026-04-23 15:39 -7.84208 -72.52011 13519 ft 318 kts 290°
2026-04-23 15:39 -7.83499 -72.54102 13129 ft 313 kts 290°
2026-04-23 15:39 -7.82804 -72.56145 12745 ft 307 kts 290°
2026-04-23 15:39 -7.82119 -72.58154 12374 ft 302 kts 290°
2026-04-23 15:40 -7.81440 -72.60152 12009 ft 297 kts 290°
2026-04-23 15:40 -7.80772 -72.62113 11642 ft 292 kts 290°
2026-04-23 15:40 -7.80124 -72.64019 11279 ft 288 kts 290°
2026-04-23 15:40 -7.79477 -72.65923 10935 ft 285 kts 290°
2026-04-23 15:41 -7.78839 -72.67806 10564 ft 285 kts 290°
2026-04-23 15:41 -7.78203 -72.69688 10206 ft 284 kts 290°
2026-04-23 15:41 -7.77566 -72.71575 9914 ft 280 kts 290°
2026-04-23 15:41 -7.76952 -72.73387 9631 ft 277 kts 290°
2026-04-23 15:42 -7.76326 -72.75229 9282 ft 276 kts 290°
2026-04-23 15:42 -7.75703 -72.77055 8942 ft 275 kts 290°
2026-04-23 15:42 -7.75087 -72.78867 8620 ft 272 kts 290°
2026-04-23 15:42 -7.74473 -72.80671 8275 ft 269 kts 290°
2026-04-23 15:43 -7.73876 -72.82423 7948 ft 266 kts 290°
2026-04-23 15:43 -7.73274 -72.84188 7618 ft 263 kts 290°
2026-04-23 15:43 -7.72879 -72.85345 7404 ft 262 kts 290°